Météo par heure à Jumurtov

Ce jour, 20 Juin, Dimanche

Heure Température Précipitation Vent Pression Humidité
00:00 +27°C° 0 mm 7 m/s 753 mmHg 16%
01:00 +26°C° 0 mm 7 m/s 753 mmHg 16%
02:00 +24°C° 0 mm 7 m/s 753 mmHg 17%
03:00 +24°C° 0 mm 7 m/s 754 mmHg 18%
04:00 +23°C° 0 mm 6 m/s 754 mmHg 20%
05:00 +23°C° 0 mm 7 m/s 754 mmHg 19%
06:00 +24°C° 0 mm 7 m/s 755 mmHg 19%
07:00 +24°C° 0 mm 7 m/s 755 mmHg 19%
08:00 +27°C° 0 mm 7 m/s 755 mmHg 17%
09:00 +28°C° 0 mm 7 m/s 755 mmHg 15%
10:00 +29°C° 0 mm 7 m/s 755 mmHg 14%
11:00 +30°C° 0 mm 7 m/s 755 mmHg 12%
12:00 +30°C° 0 mm 7 m/s 755 mmHg 11%
13:00 +32°C° 0 mm 7 m/s 754 mmHg 9%
14:00 +33°C° 0 mm 7 m/s 754 mmHg 9%
15:00 +33°C° 0 mm 7 m/s 754 mmHg 8%
16:00 +33°C° 0 mm 7 m/s 754 mmHg 8%
17:00 +33°C° 0 mm 7 m/s 754 mmHg 9%
18:00 +32°C° 0 mm 6 m/s 754 mmHg 11%
19:00 +30°C° 0 mm 6 m/s 753 mmHg 12%
20:00 +29°C° 0 mm 6 m/s 754 mmHg 15%
21:00 +28°C° 0 mm 6 m/s 754 mmHg 17%
22:00 +27°C° 0 mm 5 m/s 754 mmHg 20%
23:00 +26°C° 0 mm 5 m/s 754 mmHg 22%

Demain, 21 Juin, Lundi

Heure Température Précipitation Vent Pression Humidité
00:00 +26°C° 0 mm 4 m/s 754 mmHg 23%
01:00 +25°C° 0 mm 3 m/s 754 mmHg 24%
02:00 +25°C° 0 mm 3 m/s 754 mmHg 24%
03:00 +25°C° 0 mm 3 m/s 754 mmHg 24%
04:00 +24°C° 0 mm 3 m/s 754 mmHg 25%
05:00 +26°C° 0 mm 3 m/s 754 mmHg 23%
06:00 +27°C° 0 mm 3 m/s 754 mmHg 22%
07:00 +28°C° 0 mm 3 m/s 754 mmHg 20%
08:00 +29°C° 0 mm 3 m/s 754 mmHg 19%
09:00 +31°C° 0 mm 3 m/s 754 mmHg 17%
10:00 +34°C° 0 mm 3 m/s 754 mmHg 15%
11:00 +35°C° 0 mm 3 m/s 754 mmHg 15%
12:00 +36°C° 0 mm 3 m/s 753 mmHg 15%
13:00 +37°C° 0 mm 4 m/s 753 mmHg 14%
14:00 +38°C° 0 mm 4 m/s 752 mmHg 14%
15:00 +40°C° 0 mm 4 m/s 752 mmHg 14%
16:00 +40°C° 0 mm 5 m/s 752 mmHg 13%
17:00 +39°C° 0 mm 6 m/s 752 mmHg 18%
18:00 +38°C° 0 mm 7 m/s 752 mmHg 22%
19:00 +37°C° 0 mm 9 m/s 752 mmHg 26%
20:00 +34°C° 0 mm 8 m/s 752 mmHg 27%
21:00 +33°C° 0 mm 7 m/s 752 mmHg 27%
22:00 +32°C° 0 mm 6 m/s 752 mmHg 28%
23:00 +30°C° 0 mm 6 m/s 752 mmHg 27%

Après-demain, 22 Juin, Mardi

Heure Température Précipitation Vent Pression Humidité
00:00 +29°C° 0 mm 6 m/s 752 mmHg 27%
01:00 +28°C° 0 mm 6 m/s 752 mmHg 27%
02:00 +28°C° 0 mm 6 m/s 752 mmHg 24%
03:00 +28°C° 0 mm 7 m/s 752 mmHg 21%
04:00 +27°C° 0 mm 7 m/s 753 mmHg 19%
05:00 +28°C° 0 mm 7 m/s 753 mmHg 17%
06:00 +28°C° 0 mm 8 m/s 753 mmHg 15%
07:00 +28°C° 0 mm 8 m/s 754 mmHg 13%
08:00 +30°C° 0 mm 7 m/s 754 mmHg 13%
09:00 +32°C° 0 mm 7 m/s 754 mmHg 12%
10:00 +33°C° 0 mm 7 m/s 754 mmHg 12%
11:00 +34°C° 0 mm 7 m/s 754 mmHg 12%
12:00 +35°C° 0 mm 7 m/s 754 mmHg 11%
13:00 +35°C° 0 mm 7 m/s 754 mmHg 11%
14:00 +35°C° 0 mm 7 m/s 753 mmHg 11%
15:00 +37°C° 0 mm 8 m/s 753 mmHg 10%
16:00 +37°C° 0 mm 8 m/s 753 mmHg 10%
17:00 +35°C° 0 mm 8 m/s 753 mmHg 11%
18:00 +34°C° 0 mm 8 m/s 753 mmHg 11%
19:00 +33°C° 0 mm 7 m/s 753 mmHg 12%
20:00 +32°C° 0 mm 7 m/s 753 mmHg 14%
21:00 +30°C° 0 mm 7 m/s 753 mmHg 15%
22:00 +29°C° 0 mm 6 m/s 754 mmHg 17%
23:00 +28°C° 0 mm 6 m/s 754 mmHg 18%

23 Juin, Mercredi

Heure Température Précipitation Vent Pression Humidité
00:00 +27°C° 0 mm 5 m/s 754 mmHg 20%
01:00 +26°C° 0 mm 5 m/s 754 mmHg 22%
02:00 +26°C° 0 mm 5 m/s 754 mmHg 23%
03:00 +25°C° 0 mm 5 m/s 754 mmHg 24%
04:00 +25°C° 0 mm 5 m/s 754 mmHg 25%
05:00 +26°C° 0 mm 6 m/s 754 mmHg 24%
06:00 +26°C° 0 mm 6 m/s 754 mmHg 23%
07:00 +27°C° 0 mm 7 m/s 755 mmHg 21%
08:00 +29°C° 0 mm 7 m/s 755 mmHg 20%
09:00 +30°C° 0 mm 7 m/s 755 mmHg 19%
10:00 +33°C° 0 mm 7 m/s 755 mmHg 18%
11:00 +34°C° 0 mm 7 m/s 754 mmHg 17%
12:00 +35°C° 0 mm 7 m/s 754 mmHg 16%
13:00 +36°C° 0 mm 7 m/s 754 mmHg 15%
14:00 +36°C° 0 mm 7 m/s 753 mmHg 14%
15:00 +38°C° 0 mm 6 m/s 753 mmHg 13%
16:00 +38°C° 0 mm 6 m/s 753 mmHg 13%
17:00 +36°C° 0 mm 6 m/s 753 mmHg 14%
18:00 +36°C° 0 mm 5 m/s 753 mmHg 14%
19:00 +35°C° 0 mm 5 m/s 753 mmHg 15%
20:00 +34°C° 0 mm 5 m/s 753 mmHg 18%
21:00 +32°C° 0 mm 5 m/s 753 mmHg 20%
22:00 +30°C° 0 mm 5 m/s 753 mmHg 23%
23:00 +29°C° 0 mm 5 m/s 753 mmHg 24%

24 Juin, Jeudi

Heure Température Précipitation Vent Pression Humidité
00:00 +28°C° 0 mm 5 m/s 753 mmHg 26%
01:00 +28°C° 0 mm 4 m/s 753 mmHg 28%
02:00 +28°C° 0 mm 4 m/s 753 mmHg 29%
03:00 +27°C° 0 mm 4 m/s 752 mmHg 30%
04:00 +27°C° 0 mm 3 m/s 752 mmHg 31%
05:00 +28°C° 0 mm 3 m/s 753 mmHg 30%
06:00 +29°C° 0 mm 3 m/s 753 mmHg 28%
07:00 +31°C° 0 mm 3 m/s 753 mmHg 27%
08:00 +33°C° 0 mm 3 m/s 753 mmHg 25%
09:00 +35°C° 0 mm 4 m/s 753 mmHg 23%
10:00 +36°C° 0 mm 4 m/s 753 mmHg 20%
11:00 +37°C° 0 mm 4 m/s 753 mmHg 19%
12:00 +38°C° 0 mm 4 m/s 752 mmHg 18%
13:00 +40°C° 0 mm 4 m/s 752 mmHg 17%
14:00 +41°C° 0 mm 5 m/s 752 mmHg 17%
15:00 +41°C° 0 mm 5 m/s 751 mmHg 17%
16:00 +41°C° 0 mm 6 m/s 751 mmHg 16%
17:00 +40°C° 0 mm 7 m/s 751 mmHg 18%
18:00 +39°C° 0 mm 7 m/s 751 mmHg 19%
19:00 +38°C° 0 mm 8 m/s 751 mmHg 21%
20:00 +37°C° 0 mm 8 m/s 752 mmHg 22%
21:00 +35°C° 0 mm 8 m/s 752 mmHg 23%
22:00 +34°C° 0 mm 7 m/s 752 mmHg 25%
23:00 +33°C° 0 mm 7 m/s 752 mmHg 24%

25 Juin, Vendredi

Heure Température Précipitation Vent Pression Humidité
00:00 +32°C° 0 mm 7 m/s 752 mmHg 24%
01:00 +30°C° 0 mm 7 m/s 752 mmHg 24%
02:00 +29°C° 0 mm 6 m/s 752 mmHg 22%
03:00 +28°C° 0 mm 5 m/s 752 mmHg 21%
04:00 +27°C° 0 mm 5 m/s 753 mmHg 19%
05:00 +28°C° 0 mm 5 m/s 753 mmHg 18%
06:00 +28°C° 0 mm 5 m/s 753 mmHg 16%
07:00 +29°C° 0 mm 5 m/s 754 mmHg 14%
08:00 +30°C° 0 mm 5 m/s 754 mmHg 13%
09:00 +32°C° 0 mm 5 m/s 754 mmHg 13%
10:00 +33°C° 0 mm 5 m/s 753 mmHg 12%
11:00 +34°C° 0 mm 5 m/s 753 mmHg 11%
12:00 +35°C° 0 mm 6 m/s 753 mmHg 11%
13:00 +36°C° 0 mm 6 m/s 753 mmHg 10%
14:00 +36°C° 0 mm 6 m/s 752 mmHg 10%
15:00 +36°C° 0 mm 6 m/s 752 mmHg 9%
16:00 +36°C° 0 mm 6 m/s 751 mmHg 9%
17:00 +36°C° 0 mm 6 m/s 751 mmHg 9%
18:00 +35°C° 0 mm 5 m/s 751 mmHg 10%
19:00 +34°C° 0 mm 5 m/s 751 mmHg 10%
20:00 +33°C° 0 mm 5 m/s 751 mmHg 11%
21:00 +32°C° 0 mm 5 m/s 751 mmHg 11%
22:00 +29°C° 0 mm 5 m/s 751 mmHg 12%
23:00 +29°C° 0 mm 4 m/s 751 mmHg 13%
Voir plus

Nous avons besoin de votre consentement

Meteoprog et ses fournisseurs de services peuvent stocker et accéder à des données personnelles telles que des cookies, des identifiants d'appareils ou d'autres technologies similaires sur votre appareil et traiter ces données pour personnaliser le contenu et les publicités, ainsi que pour fournir des fonctionnalités de médias sociaux et analyser le trafic.

  • Stocker et/ou accéder à des informations sur votre appareil

    Des cookies, des identifiants d'appareils ou d'autres informations peuvent être stockés ou accessibles sur votre appareil aux fins indiquées ci-dessus.

  • Annonces et contenus personnalisés, mesure des annonces et des contenus, connaissance de l'audience et développement de produits

    Les annonces et le contenu peuvent être personnalisés en fonction d'un profil. D'autres données peuvent être ajoutées pour mieux personnaliser les annonces et le contenu. Les performances des publicités et du contenu peuvent être mesurées. Il est possible d'obtenir des informations sur le public qui a vu les publicités et le contenu. Ces données peuvent être utilisées pour développer ou améliorer l'expérience de l'utilisateur, les systèmes et les logiciels.

En cliquant sur "J'accepte", vous autorisez l'utilisation de cookies, des identifiants d'appareils, des balises web ou d'autres technologies similaires. Vos paramètres peuvent être modifiés dans le navigateur de votre appareil.

Dans certains cas, des intérêts légitimes peuvent être invoqués plutôt qu'un consentement. Vous pouvez en savoir plus à ce sujet dans notre Politique de confidentialité et de cookies.